Wind_Speed
22 24 25 19 21 22 21 18 18 18 21 25 25 26 20 23 24 21 17 21 25 25 30 33 29 28 28 28 29 29 29 30 33 35 34 34 32 30 31 30 29 26 22 21
24 28 21 22 22 20 20 20 20 20 19 20 22 24 26 19 13 15 21 21 23 24 22 23 24 25 27 30 32 32 32 34 35 34 32 29 29 30 31 30 27 22 19 18
25 23 16 21 22 21 20 20 20 20 19 21 24 19 14 13 17 18 14 16 17 18 21 23 24 26 28 30 32 35 29 22 22 24 27 29 31 32 30 26 24 20 18 17
22 27 23 20 22 20 21 20 19 17 12 6 6 7 15 18 15 11 13 15 16 17 18 21 22 23 23 24 23 22 24 26 27 28 30 32 32 29 26 23 20 19 17 16
20 17 24 28 23 20 18 15 13 13 13 15 13 8 7 13 14 13 12 14 14 12 11 14 16 18 20 22 24 27 28 31 32 32 32 29 27 25 21 19 18 17 16 16
28 19 18 22 22 19 14 13 9 9 9 3 7 10 6 13 13 12 11 10 11 13 16 17 19 21 23 25 27 28 30 30 30 29 27 25 21 20 19 18 17 16 17 17
25 24 21 18 18 18 18 11 0 3 1 5 5 8 17 12 16 15 11 7 10 13 15 18 19 20 21 22 23 25 26 26 24 23 20 18 17 18 17 16 16 17 16 16
24 12 26 24 25 15 21 19 6 7 3 3 8 9 6 11 13 11 6 4 7 11 13 16 18 19 19 19 20 21 20 18 16 15 15 16 16 17 16 16 16 15 16 16
21 13 18 20 23 20 17 15 15 2 2 1 7 9 16 17 13 13 13 13 13 15 19 21 19 19 18 17 18 16 15 14 14 14 15 16 16 16 15 15 14 15 15 16
12 8 16 18 19 23 16 16 7 7 2 4 6 8 17 13 16 18 19 19 14 14 21 21 19 18 16 14 12 12 12 13 15 15 15 15 15 14 13 13 13 14 15 18
23 14 10 18 21 23 21 19 10 8 5 5 2 6 10 10 15 18 21 22 23 23 21 20 18 17 14 12 11 9 8 8 9 9 10 10 9 9 10 11 13 14 16 18
25 13 10 16 13 21 24 21 23 8 7 7 2 9 14 12 14 16 19 22 22 21 19 21 18 16 12 12 11 10 9 8 7 7 6 6 7 9 10 11 12 13 15 15
24 12 8 2 11 17 22 28 27 24 9 13 8 6 8 8 10 13 17 20 20 19 21 23 18 15 11 10 10 9 9 8 8 6 5 4 6 8 9 10 11 13 14 14
19 14 12 7 4 11 18 28 28 27 13 14 26 23 22 19 18 25 25 26 32 31 28 23 18 15 11 10 8 8 8 8 7 7 6 6 6 7 8 10 11 14 14 14
20 14 21 16 11 10 9 10 22 34 33 22 26 28 24 24 25 27 30 32 29 25 26 23 18 16 13 11 9 8 8 7 7 6 6 7 7 8 11 11 12 14 15 16
27 13 15 15 18 19 22 20 24 29 30 37 37 37 29 25 24 25 24 23 23 22 23 21 20 18 16 14 13 11 11 11 10 11 11 11 11 12 14 15 15 17 18 18
21 20 10 4 10 12 16 26 32 35 34 29 32 22 18 19 18 14 15 15 16 15 19 20 20 19 20 17 16 16 15 15 15 15 17 17 17 17 18 19 20 20 21 21
12 16 12 4 5 1 9 12 14 15 16 23 19 18 16 13 12 9 10 12 13 14 16 19 21 20 21 21 18 18 17 17 17 18 20 20 20 20 21 22 23 24 25 25
13 14 7 5 10 13 11 13 15 14 13 14 14 14 11 9 11 13 17 16 17 16 16 17 21 23 22 23 23 21 22 22 22 23 24 26 26 25 26 26 27 27 27 28
19 18 16 9 3 6 3 9 12 11 13 10 12 13 12 14 15 15 18 19 20 21 20 20 21 22 23 23 24 25 26 26 27 27 29 30 32 31 30 32 32 32 32 31
25 22 24 18 8 10 14 12 8 6 5 7 7 6 8 10 12 13 15 17 19 19 20 20 20 21 23 24 25 26 27 28 29 30 31 31 33 34 33 32 33 34 36 36
22 18 16 19 10 11 12 15 14 8 8 9 6 6 7 6 5 5 7 9 10 12 13 14 15 17 18 20 21 23 24 25 26 27 29 30 32 34 34 34 33 34 35 37
15 15 8 13 8 6 3 6 7 14 11 11 8 7 6 5 5 6 8 10 10 10 11 12 13 15 16 18 19 21 23 24 25 27 28 29 29 30 32 32 33 34 36 38
12 16 17 16 15 17 14 11 10 10 14 13 12 11 9 7 6 8 10 12 14 14 14 15 17 19 20 21 22 23 24 25 27 28 30 31 31 31 32 31 32 33 33 35
13 14 15 23 22 22 17 16 16 12 12 12 11 11 10 9 9 12 14 16 17 17 18 18 19 20 21 21 22 23 24 24 24 25 26 27 28 29 29 30 31 33 34 36
20 22 26 26 20 15 12 18 20 15 15 13 13 13 11 11 12 15 18 19 19 20 20 20 21 21 22 22 23 23 23 23 22 22 22 23 24 25 26 27 28 31 31 32
Wind_Direction
230 231 236 261 263 254 252 246 252 258 270 275 279 283 294 289 284 281 280 283 281 275 268 268 267 267 272 275 280 283 278 272 269 268 269 272 271 272 276 280 280 275 272 271
229 241 258 255 251 245 243 250 257 270 273 278 281 287 290 282 264 273 285 276 275 284 287 280 275 271 270 273 276 279 280 274 269 268 268 265 268 273 277 279 274 268 262 263
244 254 255 246 240 235 241 252 263 269 275 279 288 294 256 254 271 287 290 295 294 289 283 280 273 267 265 269 273 277 275 266 262 261 264 269 272 275 275 271 265 258 258 261
253 247 245 239 233 234 243 252 260 266 280 262 277 287 241 266 272 282 291 290 292 292 279 271 269 267 267 267 267 266 269 270 270 269 271 273 274 273 266 260 255 257 258 261
235 235 228 228 230 233 246 245 253 267 275 284 271 232 254 247 261 273 276 284 292 294 290 278 273 269 267 267 269 271 271 272 273 272 270 270 267 263 256 251 254 256 260 272
229 230 223 226 230 227 226 234 251 270 276 277 226 213 250 249 269 266 284 280 279 285 284 282 277 274 274 274 274 275 275 272 269 268 267 263 257 250 247 247 249 255 266 273
215 217 215 212 212 219 217 206 358 327 326 218 182 224 250 255 261 278 297 304 291 286 286 288 286 283 280 278 280 280 276 273 266 261 258 252 247 246 245 245 253 263 269 270
199 205 216 222 223 223 212 202 201 205 196 258 207 234 260 241 248 263 240 258 315 328 324 309 298 291 289 286 286 281 278 270 260 252 247 246 246 244 244 251 261 266 267 269
195 201 209 214 216 206 200 205 217 169 155 183 228 255 256 250 240 240 236 254 282 307 328 320 305 299 294 291 290 278 268 261 255 248 246 247 247 246 250 257 262 265 267 273
192 167 203 204 200 203 198 193 172 191 140 249 273 258 248 233 234 242 249 258 263 291 324 317 306 300 295 291 292 283 271 263 259 255 252 248 245 248 255 262 267 269 272 274
216 217 194 200 206 208 199 198 194 182 198 170 248 248 237 245 246 253 256 262 268 277 300 319 306 302 293 289 292 285 279 266 254 250 245 240 238 245 258 266 270 273 275 274
208 211 188 206 216 214 216 218 213 201 199 205 222 269 268 249 254 267 268 274 280 284 290 317 303 299 294 289 292 286 278 268 257 253 253 243 245 250 258 266 270 273 276 276
202 206 146 183 236 221 216 214 211 218 217 212 168 248 238 252 255 271 272 271 280 293 295 306 298 294 294 287 290 285 282 273 269 271 271 267 256 252 259 268 271 275 279 287
200 211 208 211 181 203 215 221 215 215 212 224 224 246 264 271 275 283 281 276 280 285 290 294 284 282 287 287 284 285 279 277 278 277 277 272 268 275 277 276 281 281 286 291
211 226 220 225 227 199 201 204 215 223 232 233 259 263 277 272 274 276 277 277 276 275 279 281 272 271 274 276 274 276 279 283 289 291 287 283 285 287 280 280 284 288 291 291
216 226 228 238 244 252 256 243 240 244 246 253 259 270 277 276 274 270 273 274 271 267 267 268 265 262 262 267 272 271 274 278 282 288 291 291 294 293 293 293 295 293 291 290
213 220 219 234 229 243 265 250 244 249 255 261 254 282 281 282 277 267 256 275 277 263 259 258 261 262 264 267 278 279 280 279 283 286 286 287 291 291 292 293 294 293 293 290
217 210 200 194 177 271 243 242 238 248 247 251 259 271 265 261 251 239 264 280 281 272 264 258 258 265 267 271 270 276 277 281 284 283 284 288 291 294 293 292 292 291 291 291
210 203 191 208 209 278 246 240 244 240 244 252 258 238 242 235 238 262 278 282 284 286 279 271 264 264 269 272 275 274 276 279 280 282 285 288 289 290 289 289 287 287 289 290
217 210 214 202 210 218 197 212 234 239 257 235 236 242 249 258 269 281 281 281 284 283 279 275 272 269 269 270 272 273 275 276 279 280 282 285 287 287 286 285 286 286 285 283
199 210 220 223 243 269 232 234 223 220 243 209 203 219 245 270 283 289 293 289 284 282 283 283 277 272 274 277 279 278 278 278 279 280 281 282 284 286 287 286 286 284 283 281
196 197 208 221 225 261 240 230 223 235 222 212 233 256 272 270 287 307 325 331 319 306 299 294 291 286 282 282 283 283 283 283 283 283 284 284 284 284 284 285 283 285 286 283
205 207 209 207 232 221 186 228 243 236 230 231 258 276 264 244 269 304 318 321 319 315 308 299 301 301 296 291 287 285 284 283 283 283 284 286 287 286 284 283 282 283 286 287
227 227 234 246 253 251 255 252 249 239 235 245 260 251 237 244 271 298 309 312 311 309 306 302 297 292 294 295 293 291 290 288 286 284 284 286 287 288 287 285 284 285 287 287
245 245 250 255 260 263 260 254 246 243 245 257 242 231 236 255 279 295 302 303 303 304 305 305 304 301 300 301 300 299 299 299 299 296 293 291 290 290 289 288 287 288 288 288
262 272 268 272 278 274 266 250 249 243 247 242 230 230 243 267 287 298 301 303 305 306 308 309 309 309 309 308 306 306 305 304 304 304 304 302 300 298 297 294 293 294 292 291
Height
3069 3070 3069 3075 3075 3073 3073 3072 3071 3072 3071 3069 3068 3066 3067 3065 3061 3058 3057 3056 3054 3052 3052 3054 3054 3054 3054 3055 3055 3054 3054 3054 3052 3051 3051 3051 3050 3050 3049 3049 3048 3047 3046 3045
3065 3062 3068 3068 3068 3069 3069 3068 3067 3068 3066 3064 3062 3060 3058 3057 3055 3054 3052 3050 3049 3048 3047 3047 3048 3048 3049 3049 3048 3047 3046 3045 3044 3044 3044 3044 3044 3042 3041 3041 3040 3039 3039 3039
3059 3059 3060 3061 3062 3064 3064 3064 3064 3063 3062 3061 3057 3053 3050 3052 3051 3048 3046 3045 3044 3043 3042 3042 3042 3042 3042 3043 3042 3041 3039 3038 3037 3037 3037 3037 3036 3036 3034 3033 3033 3032 3032 3032
3053 3053 3054 3055 3056 3059 3060 3060 3059 3058 3058 3057 3056 3053 3047 3046 3045 3043 3043 3042 3041 3040 3039 3037 3036 3036 3036 3035 3035 3034 3033 3032 3031 3031 3030 3029 3029 3028 3026 3026 3026 3026 3025 3026
3045 3045 3047 3048 3051 3054 3056 3057 3055 3055 3055 3053 3051 3052 3039 3042 3039 3040 3041 3040 3038 3036 3035 3034 3033 3032 3031 3030 3029 3028 3027 3025 3023 3022 3022 3021 3021 3020 3020 3020 3020 3020 3020 3020
3039 3041 3043 3044 3046 3049 3051 3053 3052 3051 3052 3051 3045 3047 3036 3037 3036 3036 3037 3035 3034 3033 3031 3030 3028 3027 3025 3024 3022 3020 3019 3017 3016 3014 3013 3013 3013 3014 3014 3015 3015 3014 3014 3013
3033 3035 3037 3039 3041 3044 3047 3048 3050 3055 3052 3048 3043 3044 3032 3033 3033 3033 3032 3031 3030 3029 3028 3026 3024 3022 3019 3018 3015 3013 3011 3009 3008 3007 3006 3007 3008 3009 3009 3010 3009 3008 3007 3007
3024 3030 3031 3033 3035 3039 3040 3042 3042 3049 3049 3043 3041 3033 3029 3029 3029 3030 3029 3029 3028 3026 3024 3022 3019 3017 3014 3012 3010 3007 3005 3003 3002 3002 3002 3002 3003 3004 3005 3005 3004 3002 3002 3002
3017 3021 3022 3026 3030 3035 3035 3037 3038 3038 3041 3042 3033 3027 3025 3024 3024 3026 3026 3026 3024 3023 3020 3018 3015 3011 3009 3007 3005 3003 3001 2999 2998 2998 2998 2999 3000 3000 2999 2999 2998 2998 2998 2998
3013 3016 3020 3023 3026 3028 3029 3032 3035 3036 3044 3045 3028 3024 3018 3018 3020 3021 3021 3021 3021 3019 3017 3014 3011 3008 3005 3003 3001 2998 2997 2996 2995 2994 2994 2995 2995 2995 2995 2995 2994 2995 2995 2994
3009 3013 3019 3021 3019 3020 3024 3025 3027 3030 3031 3034 3036 3018 3015 3016 3017 3016 3017 3017 3016 3015 3014 3011 3008 3005 3003 3000 2998 2996 2994 2993 2992 2992 2992 2991 2991 2991 2991 2991 2991 2991 2991 2991
3006 3009 3012 3015 3015 3016 3017 3019 3021 3023 3024 3025 3025 3014 3012 3013 3013 3013 3013 3012 3012 3011 3009 3007 3005 3002 2999 2998 2996 2994 2992 2991 2990 2989 2988 2987 2987 2988 2987 2988 2988 2988 2988 2987
3000 3004 3008 3012 3015 3012 3010 3011 3014 3018 3018 3018 3020 3010 3009 3009 3010 3009 3009 3007 3006 3006 3005 3003 3001 2999 2996 2995 2993 2992 2991 2989 2988 2987 2986 2985 2985 2984 2984 2984 2984 2984 2984 2982
2996 2997 2997 2998 2998 3001 3003 3004 3008 3012 3013 3008 3004 3003 3005 3007 3006 3004 3003 3003 3001 3001 3000 2999 2997 2996 2993 2992 2991 2990 2989 2988 2986 2985 2984 2983 2982 2981 2981 2981 2981 2981 2979 2977
2994 2993 2994 2994 2995 2998 2999 3000 3002 3002 3004 3001 2999 2999 3002 3002 3000 2998 2997 2996 2995 2995 2994 2994 2993 2992 2990 2990 2988 2987 2987 2985 2984 2982 2981 2980 2980 2979 2979 2978 2977 2975 2974 2972
2988 2989 2990 2991 2993 2995 2995 2996 2996 2997 2997 2992 2994 2990 2994 2996 2993 2990 2988 2988 2988 2988 2988 2988 2988 2988 2987 2986 2985 2984 2984 2982 2981 2979 2978 2977 2976 2976 2975 2973 2972 2971 2969 2968
2984 2985 2987 2988 2990 2991 2990 2984 2985 2985 2984 2986 2986 2987 2988 2987 2985 2984 2984 2983 2982 2982 2982 2983 2983 2983 2983 2982 2981 2980 2979 2978 2977 2975 2974 2973 2972 2971 2970 2969 2967 2966 2964 2962
2979 2981 2985 2986 2989 2992 2977 2977 2978 2978 2978 2979 2980 2982 2982 2982 2981 2981 2980 2980 2979 2978 2977 2978 2978 2978 2977 2977 2976 2975 2974 2973 2972 2970 2969 2968 2967 2966 2965 2963 2961 2960 2958 2956
2976 2977 2980 2983 2983 2976 2973 2973 2973 2973 2975 2975 2976 2977 2978 2979 2978 2978 2976 2975 2975 2974 2973 2973 2973 2972 2972 2971 2971 2969 2968 2967 2966 2965 2963 2962 2961 2960 2958 2956 2953 2952 2950 2948
2972 2975 2979 2979 2978 2978 2970 2968 2969 2970 2969 2969 2971 2972 2974 2975 2973 2974 2971 2970 2970 2968 2967 2967 2966 2965 2966 2965 2965 2964 2962 2961 2960 2959 2957 2954 2952 2951 2950 2948 2946 2944 2942 2940
2967 2971 2972 2975 2975 2967 2966 2966 2967 2970 2971 2966 2968 2969 2969 2970 2971 2968 2966 2965 2964 2963 2961 2960 2959 2959 2959 2959 2958 2957 2955 2954 2952 2951 2949 2947 2944 2942 2940 2938 2936 2934 2932 2930
2961 2967 2968 2972 2973 2967 2960 2962 2965 2965 2964 2965 2966 2966 2966 2966 2966 2965 2964 2962 2960 2958 2957 2955 2954 2953 2952 2952 2951 2950 2948 2947 2944 2942 2940 2938 2935 2933 2931 2929 2927 2924 2921 2918
2960 2959 2959 2961 2959 2958 2958 2959 2959 2961 2962 2963 2964 2964 2963 2963 2963 2963 2962 2960 2958 2957 2955 2953 2951 2949 2948 2946 2944 2943 2941 2939 2937 2934 2932 2929 2926 2923 2921 2918 2916 2914 2911 2907
2952 2954 2954 2955 2955 2955 2956 2957 2957 2958 2959 2960 2960 2961 2961 2960 2960 2960 2959 2958 2956 2954 2952 2949 2947 2944 2942 2939 2937 2935 2933 2931 2929 2926 2923 2920 2917 2914 2911 2908 2905 2903 2901 2897
2951 2950 2950 2949 2951 2952 2952 2953 2954 2955 2956 2956 2957 2958 2957 2958 2957 2957 2956 2954 2953 2950 2948 2945 2942 2939 2936 2934 2931 2928 2926 2923 2920 2917 2914 2911 2908 2905 2902 2899 2896 2893 2889 2885
2944 2945 2943 2943 2945 2945 2946 2947 2949 2951 2952 2953 2954 2954 2954 2954 2953 2953 2952 2950 2948 2946 2943 2939 2936 2933 2930 2927 2925 2922 2919 2916 2913 2910 2907 2903 2900 2896 2893 2890 2887 2881 2879 2875